TimeEDT,TemperatureF,Dew PointF,Humidity,Sea Level PressureIn,VisibilityMPH,Wind Direction,Wind SpeedMPH,Gust SpeedMPH,PrecipitationIn,Events,Conditions,WindDirDegrees,DateUTC
12:53 AM,64.9,55.9,73,30.03,10.0,NNW,4.6,-,N/A,,Partly Cloudy,330,2014-03-24 04:53:00
1:41 AM,61.0,48.9,64,30.05,10.0,NE,18.4,26.5,N/A,,Overcast,40,2014-03-24 05:41:00
1:53 AM,61.0,48.0,62,30.06,10.0,NE,16.1,-,0.00,,Overcast,40,2014-03-24 05:53:00
2:09 AM,61.0,46.9,60,30.07,10.0,NNE,15.0,25.3,0.00,Rain,Light Rain,30,2014-03-24 06:09:00
2:53 AM,59.0,46.9,64,30.06,10.0,NNE,17.3,25.3,0.00,Rain,Light Rain,30,2014-03-24 06:53:00
3:53 AM,57.9,46.0,65,30.08,10.0,NNE,19.6,26.5,0.00,Rain,Light Rain,30,2014-03-24 07:53:00
4:53 AM,57.0,46.0,67,30.08,10.0,NNE,18.4,26.5,0.00,Rain,Light Rain,30,2014-03-24 08:53:00
5:53 AM,55.9,39.9,55,30.11,10.0,NE,19.6,27.6,0.00,Rain,Light Rain,40,2014-03-24 09:53:00
6:53 AM,55.0,41.0,59,30.11,10.0,NE,19.6,25.3,0.00,,Overcast,40,2014-03-24 10:53:00
7:53 AM,54.0,42.1,64,30.12,10.0,NE,17.3,23.0,0.00,,Mostly Cloudy,40,2014-03-24 11:53:00
8:53 AM,55.9,44.1,64,30.15,10.0,NE,16.1,23.0,0.00,,Overcast,40,2014-03-24 12:53:00
9:53 AM,55.9,45.0,67,30.15,10.0,NE,18.4,29.9,0.00,Rain,Light Rain,40,2014-03-24 13:53:00
10:53 AM,55.9,44.1,64,30.19,10.0,NE,18.4,31.1,0.00,Rain,Light Rain,40,2014-03-24 14:53:00
11:53 AM,57.9,45.0,62,30.17,10.0,NE,23.0,29.9,0.00,Rain,Light Rain,50,2014-03-24 15:53:00
12:53 PM,59.0,45.0,60,30.16,10.0,NNE,20.7,27.6,0.00,Rain,Light Rain,30,2014-03-24 16:53:00
1:53 PM,57.0,43.0,59,30.15,10.0,NNE,19.6,26.5,0.00,Rain,Light Rain,30,2014-03-24 17:53:00
2:53 PM,55.9,44.1,64,30.12,10.0,NE,18.4,27.6,0.00,Rain,Light Rain,40,2014-03-24 18:53:00
3:53 PM,55.9,44.1,64,30.09,10.0,NNE,19.6,29.9,0.00,Rain,Light Rain,30,2014-03-24 19:53:00
4:53 PM,55.0,45.0,69,30.08,10.0,NE,17.3,-,0.00,Rain,Light Rain,40,2014-03-24 20:53:00
5:53 PM,54.0,45.0,72,30.06,10.0,NE,18.4,27.6,0.00,Rain,Light Rain,40,2014-03-24 21:53:00
6:53 PM,55.0,46.0,72,30.06,10.0,NE,12.7,20.7,0.00,,Overcast,40,2014-03-24 22:53:00
7:53 PM,55.0,46.0,72,30.04,10.0,NE,10.4,-,N/A,,Overcast,40,2014-03-24 23:53:00
8:53 PM,55.9,46.0,69,30.05,10.0,NNE,11.5,18.4,N/A,,Overcast,20,2014-03-25 00:53:00
9:53 PM,55.9,46.9,72,30.02,10.0,NE,12.7,21.9,N/A,,Overcast,40,2014-03-25 01:53:00
10:15 PM,55.9,48.0,75,30.02,10.0,NE,12.7,-,N/A,,Overcast,40,2014-03-25 02:15:00
10:53 PM,55.9,48.9,77,30.00,10.0,NE,13.8,-,N/A,,Overcast,40,2014-03-25 02:53:00
11:53 PM,55.9,51.1,84,30.00,9.0,NNE,10.4,-,0.00,Rain,Light Rain,30,2014-03-25 03:53:00